Voltar ao catálogo

CZ-2C DEB

AtivoSSO
NORAD 39629·DEBRIS·🇨🇳 China

Lançado Mar 31, 2014 de Jiuquan Satellite Launch Center

Loading…

Próximas Passagens (próximas 24 horas)

TLE

AtualizadoSource: Space-Track

Época: Sep 14, 2026, 08:54 UTC

1 39629U 14014F   26257.37123722  .00001180  00000-0  35776-3 0  9999
2 39629  98.6280 223.2577 0142652 144.9463 216.1215 14.38425470648478

Acompanhe CZ-2C DEB em tempo real com AllMySat

Download on the App Store